TimeEST,TemperatureF,Dew PointF,Humidity,Sea Level PressureIn,VisibilityMPH,Wind Direction,Wind SpeedMPH,Gust SpeedMPH,PrecipitationIn,Events,Conditions,WindDirDegrees,DateUTC
12:15 AM,66.2,66.2,100,30.07,7.0,Calm,Calm,-,N/A,,Unknown,0,2012-12-09 05:15:00
12:35 AM,66.2,66.2,100,30.07,8.0,Calm,Calm,-,N/A,,Unknown,0,2012-12-09 05:35:00
12:55 AM,66.2,66.2,100,30.06,8.0,Calm,Calm,-,N/A,,Unknown,0,2012-12-09 05:55:00
1:15 AM,66.2,66.2,100,30.06,7.0,Calm,Calm,-,N/A,,Unknown,0,2012-12-09 06:15:00
1:35 AM,66.2,66.2,100,30.05,8.0,Calm,Calm,-,N/A,,Unknown,0,2012-12-09 06:35:00
1:55 AM,66.2,66.2,100,30.05,7.0,Calm,Calm,-,N/A,,Unknown,0,2012-12-09 06:55:00
2:15 AM,66.2,66.2,100,30.04,7.0,Calm,Calm,-,N/A,,Unknown,0,2012-12-09 07:15:00
2:55 AM,66.2,66.2,100,30.04,6.0,Calm,Calm,-,N/A,,Mist,0,2012-12-09 07:55:00
3:55 AM,66.2,66.2,100,30.03,8.0,NNE,4.6,-,N/A,,Unknown,20,2012-12-09 08:55:00
4:15 AM,66.2,66.2,100,30.03,7.0,Calm,Calm,-,N/A,,Unknown,0,2012-12-09 09:15:00
4:55 AM,66.2,66.2,100,30.04,6.0,Calm,Calm,-,N/A,,Mist,0,2012-12-09 09:55:00
5:15 AM,64.4,64.4,100,30.04,5.0,Calm,Calm,-,N/A,,Mist,0,2012-12-09 10:15:00
5:35 AM,64.4,64.4,100,30.05,1.5,NE,4.6,-,N/A,,Mist,40,2012-12-09 10:35:00
5:55 AM,64.4,64.4,100,30.05,0.5,Calm,Calm,-,N/A,Fog,Fog,0,2012-12-09 10:55:00
6:15 AM,64.4,64.4,100,30.06,0.2,Calm,Calm,-,N/A,Fog,Fog,0,2012-12-09 11:15:00
6:35 AM,64.4,64.4,100,30.06,0.2,Calm,Calm,-,N/A,Fog,Fog,0,2012-12-09 11:35:00
6:55 AM,64.4,64.4,100,30.07,0.2,Calm,Calm,-,N/A,Fog,Fog,0,2012-12-09 11:55:00
7:15 AM,64.4,64.4,100,30.07,0.2,Calm,Calm,-,N/A,Fog,Fog,0,2012-12-09 12:15:00
7:35 AM,64.4,64.4,100,30.07,0.2,Calm,Calm,-,N/A,Fog,Fog,0,2012-12-09 12:35:00
7:55 AM,64.4,64.4,100,30.07,0.8,Calm,Calm,-,N/A,,Mist,0,2012-12-09 12:55:00
8:15 AM,64.4,64.4,100,30.08,4.0,Calm,Calm,-,N/A,,Mist,0,2012-12-09 13:15:00
8:35 AM,66.2,66.2,100,30.09,6.0,Calm,Calm,-,N/A,,Mist,0,2012-12-09 13:35:00
8:55 AM,66.2,66.2,100,30.10,9.0,Calm,Calm,-,N/A,,Unknown,0,2012-12-09 13:55:00
9:15 AM,66.2,66.2,100,30.10,10.0,Calm,Calm,-,N/A,,Unknown,0,2012-12-09 14:15:00
9:35 AM,68.0,68.0,100,30.11,10.0,Calm,Calm,-,N/A,,Unknown,0,2012-12-09 14:35:00
9:55 AM,69.8,66.2,88,30.11,9.0,Calm,Calm,-,N/A,,Unknown,0,2012-12-09 14:55:00
10:15 AM,69.8,66.2,88,30.11,10.0,Calm,Calm,-,N/A,,Unknown,0,2012-12-09 15:15:00
10:35 AM,71.6,66.2,83,30.11,10.0,Calm,Calm,-,N/A,,Unknown,0,2012-12-09 15:35:00
10:55 AM,71.6,66.2,83,30.10,10.0,WSW,4.6,-,N/A,,Unknown,240,2012-12-09 15:55:00
11:15 AM,73.4,66.2,78,30.10,10.0,West,3.5,-,N/A,,Unknown,280,2012-12-09 16:15:00
11:35 AM,73.4,66.2,78,30.09,10.0,West,4.6,-,N/A,,Unknown,270,2012-12-09 16:35:00
11:55 AM,73.4,66.2,78,30.08,10.0,WSW,5.8,-,N/A,,Unknown,250,2012-12-09 16:55:00
12:15 PM,73.4,66.2,78,30.07,10.0,WSW,5.8,-,N/A,,Unknown,240,2012-12-09 17:15:00
12:35 PM,75.2,66.2,73,30.06,10.0,West,8.1,-,N/A,,Unknown,280,2012-12-09 17:35:00
12:55 PM,75.2,66.2,73,30.05,10.0,West,9.2,-,N/A,,Unknown,270,2012-12-09 17:55:00
1:15 PM,75.2,66.2,73,30.05,10.0,WNW,6.9,-,N/A,,Unknown,300,2012-12-09 18:15:00
1:35 PM,77.0,66.2,69,30.04,10.0,WNW,9.2,-,N/A,,Unknown,300,2012-12-09 18:35:00
1:55 PM,77.0,66.2,69,30.03,10.0,WSW,6.9,-,N/A,,Unknown,250,2012-12-09 18:55:00
2:15 PM,77.0,66.2,69,30.03,10.0,WNW,8.1,-,N/A,,Unknown,300,2012-12-09 19:15:00
2:35 PM,77.0,64.4,65,30.03,10.0,West,8.1,-,N/A,,Unknown,270,2012-12-09 19:35:00
2:55 PM,77.0,64.4,65,30.03,10.0,West,5.8,-,N/A,,Unknown,260,2012-12-09 19:55:00
3:15 PM,77.0,64.4,65,30.03,10.0,WSW,4.6,-,N/A,,Unknown,240,2012-12-09 20:15:00
3:35 PM,78.8,64.4,61,30.03,10.0,SW,6.9,-,N/A,,Unknown,230,2012-12-09 20:35:00
3:55 PM,77.0,64.4,65,30.02,10.0,West,4.6,-,N/A,,Unknown,270,2012-12-09 20:55:00
4:55 PM,77.0,64.4,65,30.02,10.0,Calm,Calm,-,N/A,,Unknown,0,2012-12-09 21:55:00
5:15 PM,75.2,64.4,69,30.03,10.0,WSW,3.5,-,N/A,,Unknown,250,2012-12-09 22:15:00
5:35 PM,73.4,64.4,73,30.03,10.0,Calm,Calm,-,N/A,,Unknown,0,2012-12-09 22:35:00
5:55 PM,73.4,64.4,73,30.04,10.0,WSW,3.5,-,N/A,,Unknown,250,2012-12-09 22:55:00
6:15 PM,69.8,64.4,83,30.04,10.0,Calm,Calm,-,N/A,,Unknown,0,2012-12-09 23:15:00
6:35 PM,69.8,64.4,83,30.04,10.0,Calm,Calm,-,N/A,,Unknown,0,2012-12-09 23:35:00
6:55 PM,68.0,64.4,88,30.05,10.0,Calm,Calm,-,N/A,,Unknown,0,2012-12-09 23:55:00
8:15 PM,64.4,62.6,94,30.05,9.0,Calm,Calm,-,N/A,,Unknown,0,2012-12-10 01:15:00
8:35 PM,64.4,64.4,100,30.06,9.0,Calm,Calm,-,N/A,,Unknown,0,2012-12-10 01:35:00
9:15 PM,64.4,64.4,100,30.05,10.0,Calm,Calm,-,N/A,,Unknown,0,2012-12-10 02:15:00
9:35 PM,62.6,62.6,100,30.05,4.0,Calm,Calm,-,N/A,,Mist,0,2012-12-10 02:35:00
9:55 PM,62.6,62.6,100,30.05,0.5,Calm,Calm,-,N/A,Fog,Fog,0,2012-12-10 02:55:00
10:15 PM,62.6,62.6,100,30.05,4.0,Calm,Calm,-,N/A,,Mist,0,2012-12-10 03:15:00
10:35 PM,62.6,62.6,100,30.05,3.0,Calm,Calm,-,N/A,,Mist,0,2012-12-10 03:35:00
10:55 PM,62.6,62.6,100,30.05,0.2,Calm,Calm,-,N/A,Fog,Fog,0,2012-12-10 03:55:00
11:15 PM,62.6,62.6,100,30.05,0.2,Calm,Calm,-,N/A,Fog,Fog,0,2012-12-10 04:15:00
11:35 PM,60.8,60.8,100,30.04,0.2,Calm,Calm,-,N/A,Fog,Fog,0,2012-12-10 04:35:00
11:55 PM,60.8,60.8,100,30.04,0.2,Calm,Calm,-,N/A,Fog,Fog,0,2012-12-10 04:55:00